QPF
0.00 0.00 0.00 0.00 0.00 0.00 0.00 0.00 0.00 0.00 0.00 0.01 0.02 0.04 0.05 0.07 0.08 0.08 0.09 0.10 0.11 0.10 0.10 0.11 0.12 0.12 0.13 0.14 0.16 0.18 0.21 0.24 0.27 0.25 0.22 0.21 0.18 0.14 0.10 0.06 0.03 0.02 0.01
0.00 0.00 0.00 0.00 0.00 0.00 0.00 0.00 0.00 0.00 0.01 0.01 0.02 0.04 0.05 0.06 0.07 0.07 0.08 0.08 0.08 0.08 0.09 0.09 0.10 0.10 0.12 0.14 0.16 0.19 0.21 0.23 0.25 0.26 0.23 0.19 0.15 0.11 0.07 0.04 0.02 0.01 0.01
0.00 0.00 0.00 0.00 0.00 0.00 0.00 0.00 0.01 0.01 0.02 0.02 0.03 0.05 0.05 0.05 0.06 0.06 0.06 0.06 0.06 0.06 0.06 0.07 0.08 0.09 0.11 0.12 0.14 0.16 0.17 0.18 0.18 0.18 0.16 0.13 0.10 0.07 0.05 0.03 0.02 0.01 0.00
0.00 0.00 0.00 0.00 0.00 0.00 0.00 0.00 0.01 0.01 0.02 0.02 0.02 0.03 0.03 0.03 0.04 0.04 0.04 0.05 0.05 0.05 0.06 0.07 0.08 0.09 0.11 0.12 0.14 0.14 0.14 0.14 0.13 0.12 0.11 0.08 0.06 0.05 0.03 0.02 0.01 0.01 0.00
0.00 0.00 0.00 0.00 0.00 0.00 0.00 0.00 0.00 0.01 0.01 0.01 0.01 0.02 0.02 0.02 0.02 0.02 0.03 0.05 0.06 0.07 0.08 0.10 0.12 0.15 0.15 0.14 0.13 0.12 0.11 0.10 0.09 0.07 0.06 0.05 0.04 0.03 0.02 0.01 0.00 0.00 0.00
0.00 0.00 0.00 0.00 0.00 0.00 0.00 0.00 0.00 0.00 0.00 0.00 0.01 0.01 0.02 0.03 0.03 0.03 0.03 0.03 0.05 0.07 0.10 0.13 0.15 0.17 0.15 0.14 0.12 0.09 0.08 0.07 0.06 0.05 0.04 0.03 0.02 0.01 0.00 0.00 0.00 0.00 0.00
0.00 0.00 0.00 0.00 0.00 0.00 0.00 0.00 0.00 0.00 0.01 0.01 0.01 0.02 0.03 0.04 0.06 0.05 0.06 0.05 0.07 0.08 0.09 0.10 0.09 0.09 0.09 0.07 0.07 0.06 0.06 0.05 0.03 0.02 0.01 0.01 0.00 0.00 0.00 0.00 0.00 0.00 0.00
0.00 0.00 0.00 0.00 0.00 0.00 0.00 0.00 0.00 0.01 0.01 0.01 0.02 0.02 0.03 0.04 0.05 0.05 0.06 0.06 0.07 0.08 0.08 0.07 0.05 0.04 0.03 0.02 0.02 0.01 0.01 0.01 0.01 0.00 0.00 0.00 0.00 0.00 0.00 0.00 0.00 0.00 0.00
0.00 0.00 0.00 0.00 0.00 0.00 0.00 0.00 0.01 0.02 0.02 0.02 0.02 0.02 0.03 0.05 0.06 0.06 0.05 0.05 0.05 0.05 0.04 0.03 0.02 0.01 0.01 0.01 0.01 0.00 0.00 0.00 0.00 0.00 0.00 0.00 0.00 0.00 0.00 0.00 0.00 0.00 0.00
0.00 0.00 0.00 0.00 0.00 0.00 0.00 0.00 0.00 0.01 0.02 0.03 0.03 0.03 0.03 0.04 0.04 0.04 0.04 0.04 0.03 0.02 0.01 0.01 0.00 0.00 0.00 0.00 0.00 0.00 0.00 0.00 0.00 0.00 0.00 0.00 0.00 0.00 0.00 0.00 0.00 0.00 0.00
0.00 0.00 0.00 0.00 0.00 0.00 0.00 0.00 0.00 0.01 0.02 0.02 0.02 0.02 0.02 0.02 0.02 0.01 0.01 0.01 0.00 0.00 0.00 0.00 0.00 0.00 0.00 0.00 0.00 0.00 0.00 0.00 0.00 0.00 0.00 0.00 0.00 0.00 0.00 0.00 0.00 0.00 0.00
0.00 0.00 0.00 0.00 0.00 0.00 0.00 0.00 0.00 0.01 0.01 0.01 0.01 0.01 0.01 0.00 0.00 0.00 0.00 0.00 0.00 0.00 0.00 0.00 0.00 0.00 0.00 0.00 0.00 0.00 0.00 0.00 0.00 0.00 0.00 0.00 0.00 0.00 0.00 0.00 0.00 0.00 0.00
0.00 0.00 0.00 0.00 0.00 0.00 0.00 0.00 0.00 0.00 0.01 0.01 0.01 0.01 0.00 0.00 0.00 0.00 0.00 0.00 0.00 0.00 0.00 0.00 0.00 0.00 0.00 0.00 0.00 0.00 0.00 0.00 0.00 0.00 0.00 0.00 0.00 0.00 0.00 0.00 0.00 0.00 0.00
0.00 0.00 0.00 0.00 0.00 0.00 0.00 0.00 0.00 0.00 0.00 0.00 0.00 0.00 0.00 0.00 0.00 0.00 0.00 0.00 0.00 0.00 0.00 0.00 0.00 0.00 0.00 0.00 0.00 0.00 0.00 0.00 0.00 0.00 0.00 0.00 0.00 0.00 0.00 0.00 0.00 0.00 0.00
0.00 0.00 0.00 0.00 0.00 0.00 0.00 0.00 0.00 0.00 0.00 0.00 0.00 0.00 0.00 0.00 0.00 0.00 0.00 0.00 0.00 0.00 0.00 0.00 0.00 0.00 0.00 0.00 0.00 0.00 0.00 0.00 0.00 0.00 0.00 0.00 0.00 0.00 0.00 0.00 0.00 0.00 0.00
0.00 0.00 0.00 0.00 0.00 0.00 0.00 0.00 0.00 0.00 0.00 0.00 0.00 0.00 0.00 0.00 0.00 0.00 0.00 0.00 0.00 0.00 0.00 0.00 0.00 0.00 0.00 0.00 0.00 0.00 0.00 0.00 0.00 0.00 0.00 0.00 0.00 0.00 0.00 0.00 0.00 0.00 0.01
0.00 0.00 0.00 0.00 0.00 0.00 0.00 0.00 0.00 0.00 0.00 0.00 0.00 0.00 0.00 0.00 0.00 0.00 0.00 0.00 0.00 0.00 0.00 0.00 0.00 0.00 0.00 0.00 0.00 0.00 0.00 0.00 0.00 0.00 0.00 0.00 0.00 0.01 0.01 0.01 0.00 0.01 0.01
0.00 0.00 0.00 0.00 0.00 0.00 0.00 0.00 0.00 0.00 0.00 0.00 0.00 0.00 0.00 0.00 0.00 0.00 0.00 0.00 0.00 0.00 0.00 0.00 0.00 0.00 0.00 0.00 0.00 0.00 0.00 0.00 0.00 0.00 0.00 0.00 0.01 0.01 0.01 0.01 0.01 0.01 0.01
0.00 0.00 0.00 0.00 0.00 0.00 0.00 0.00 0.00 0.00 0.00 0.00 0.00 0.00 0.00 0.00 0.00 0.00 0.00 0.00 0.00 0.00 0.00 0.00 0.00 0.00 0.00 0.00 0.00 0.00 0.00 0.00 0.00 0.00 0.00 0.00 0.01 0.01 0.01 0.01 0.01 0.01 0.01
0.00 0.00 0.00 0.00 0.00 0.00 0.00 0.00 0.00 0.00 0.00 0.00 0.00 0.00 0.00 0.00 0.00 0.00 0.00 0.00 0.00 0.00 0.00 0.00 0.00 0.00 0.00 0.00 0.00 0.00 0.00 0.00 0.00 0.00 0.00 0.00 0.01 0.01 0.01 0.01 0.01 0.01 0.01
0.00 0.00 0.00 0.00 0.00 0.00 0.00 0.00 0.00 0.00 0.00 0.00 0.00 0.00 0.00 0.00 0.00 0.00 0.00 0.00 0.00 0.00 0.00 0.00 0.00 0.00 0.00 0.00 0.00 0.00 0.00 0.00 0.00 0.00 0.00 0.00 0.01 0.01 0.01 0.01 0.01 0.01 0.01
0.00 0.00 0.00 0.00 0.00 0.00 0.00 0.00 0.00 0.00 0.00 0.00 0.00 0.00 0.00 0.00 0.00 0.00 0.00 0.00 0.00 0.00 0.00 0.00 0.00 0.00 0.00 0.00 0.00 0.00 0.00 0.00 0.00 0.00 0.01 0.01 0.01 0.01 0.02 0.02 0.01 0.01 0.01
0.00 0.00 0.00 0.00 0.00 0.00 0.00 0.00 0.00 0.00 0.00 0.00 0.00 0.00 0.00 0.00 0.00 0.00 0.00 0.00 0.00 0.00 0.00 0.00 0.00 0.00 0.00 0.00 0.00 0.00 0.01 0.00 0.00 0.01 0.02 0.02 0.02 0.02 0.02 0.02 0.01 0.01 0.01
0.00 0.00 0.00 0.00 0.00 0.00 0.00 0.00 0.00 0.00 0.00 0.00 0.00 0.00 0.00 0.00 0.00 0.00 0.00 0.00 0.00 0.00 0.00 0.00 0.00 0.00 0.00 0.00 0.00 0.00 0.00 0.01 0.02 0.02 0.02 0.02 0.02 0.01 0.01 0.02 0.02 0.02 0.02
0.01 0.00 0.00 0.00 0.00 0.00 0.00 0.00 0.00 0.00 0.00 0.00 0.00 0.00 0.00 0.00 0.00 0.00 0.00 0.00 0.00 0.00 0.00 0.00 0.00 0.00 0.00 0.00 0.00 0.00 0.01 0.01 0.03 0.05 0.06 0.05 0.03 0.02 0.02 0.03 0.03 0.02 0.03
0.01 0.00 0.00 0.00 0.00 0.00 0.00 0.00 0.00 0.00 0.00 0.00 0.00 0.00 0.00 0.00 0.00 0.00 0.00 0.00 0.00 0.00 0.00 0.00 0.00 0.00 0.00 0.00 0.00 0.00 0.01 0.02 0.02 0.04 0.08 0.08 0.06 0.04 0.03 0.05 0.05 0.04 0.04
MSLP
1015.42 1015.10 1014.74 1014.37 1014.00 1013.65 1013.34 1013.08 1012.89 1012.75 1012.66 1012.63 1012.63 1012.65 1012.69 1012.74 1012.80 1012.87 1012.98 1013.12 1013.30 1013.53 1013.82 1014.15 1014.52 1014.93 1015.37 1015.84 1016.33 1016.83 1017.36 1017.90 1018.45 1019.00 1019.54 1020.05 1020.51 1020.91 1021.24 1021.50 1021.68 1021.80 1021.85
1015.95 1015.62 1015.26 1014.89 1014.54 1014.22 1013.94 1013.72 1013.54 1013.43 1013.36 1013.32 1013.31 1013.32 1013.33 1013.35 1013.38 1013.43 1013.51 1013.62 1013.77 1013.97 1014.22 1014.52 1014.85 1015.22 1015.61 1016.04 1016.48 1016.95 1017.44 1017.96 1018.48 1019.00 1019.51 1019.99 1020.43 1020.80 1021.11 1021.35 1021.51 1021.60 1021.62
1016.51 1016.19 1015.85 1015.51 1015.19 1014.90 1014.67 1014.49 1014.36 1014.27 1014.22 1014.19 1014.18 1014.18 1014.17 1014.18 1014.19 1014.22 1014.28 1014.37 1014.50 1014.67 1014.89 1015.14 1015.43 1015.74 1016.08 1016.45 1016.83 1017.24 1017.66 1018.10 1018.56 1019.02 1019.46 1019.89 1020.28 1020.62 1020.90 1021.11 1021.25 1021.31 1021.31
1017.07 1016.78 1016.47 1016.18 1015.91 1015.68 1015.50 1015.36 1015.28 1015.22 1015.20 1015.19 1015.18 1015.18 1015.17 1015.16 1015.16 1015.18 1015.23 1015.30 1015.42 1015.56 1015.75 1015.96 1016.21 1016.47 1016.74 1017.03 1017.34 1017.65 1017.98 1018.33 1018.69 1019.05 1019.41 1019.76 1020.09 1020.38 1020.62 1020.80 1020.92 1020.98 1020.96
1017.59 1017.35 1017.11 1016.88 1016.67 1016.50 1016.38 1016.30 1016.26 1016.24 1016.24 1016.24 1016.24 1016.24 1016.24 1016.23 1016.23 1016.24 1016.28 1016.34 1016.44 1016.57 1016.72 1016.90 1017.09 1017.30 1017.51 1017.72 1017.93 1018.14 1018.37 1018.60 1018.85 1019.10 1019.36 1019.62 1019.87 1020.11 1020.31 1020.47 1020.58 1020.63 1020.61
1018.04 1017.89 1017.72 1017.57 1017.44 1017.34 1017.28 1017.25 1017.24 1017.25 1017.27 1017.29 1017.30 1017.30 1017.29 1017.29 1017.28 1017.29 1017.32 1017.38 1017.46 1017.57 1017.70 1017.84 1017.99 1018.13 1018.27 1018.40 1018.53 1018.64 1018.76 1018.88 1019.01 1019.15 1019.31 1019.48 1019.66 1019.84 1020.01 1020.16 1020.27 1020.32 1020.32
1018.43 1018.36 1018.29 1018.22 1018.17 1018.14 1018.14 1018.15 1018.18 1018.21 1018.24 1018.26 1018.27 1018.27 1018.27 1018.26 1018.25 1018.26 1018.28 1018.32 1018.39 1018.48 1018.57 1018.68 1018.78 1018.87 1018.95 1019.01 1019.05 1019.08 1019.10 1019.12 1019.15 1019.19 1019.26 1019.35 1019.47 1019.60 1019.75 1019.89 1020.01 1020.09 1020.10
1018.74 1018.76 1018.78 1018.80 1018.83 1018.86 1018.91 1018.95 1019.00 1019.04 1019.08 1019.10 1019.11 1019.10 1019.09 1019.07 1019.06 1019.06 1019.07 1019.09 1019.14 1019.19 1019.26 1019.32 1019.38 1019.43 1019.46 1019.46 1019.44 1019.40 1019.35 1019.29 1019.24 1019.21 1019.21 1019.24 1019.32 1019.42 1019.55 1019.70 1019.83 1019.93 1019.97
1018.97 1019.08 1019.18 1019.28 1019.38 1019.47 1019.55 1019.62 1019.68 1019.72 1019.76 1019.77 1019.76 1019.75 1019.73 1019.70 1019.67 1019.66 1019.65 1019.65 1019.66 1019.69 1019.72 1019.74 1019.76 1019.77 1019.76 1019.72 1019.66 1019.58 1019.48 1019.38 1019.29 1019.21 1019.16 1019.16 1019.20 1019.29 1019.41 1019.56 1019.70 1019.82 1019.88
1019.12 1019.30 1019.48 1019.64 1019.80 1019.93 1020.04 1020.13 1020.20 1020.24 1020.26 1020.26 1020.24 1020.21 1020.17 1020.13 1020.09 1020.05 1020.02 1020.00 1019.98 1019.96 1019.96 1019.95 1019.93 1019.91 1019.87 1019.81 1019.73 1019.63 1019.52 1019.40 1019.29 1019.19 1019.13 1019.10 1019.13 1019.20 1019.31 1019.44 1019.58 1019.70 1019.77
1019.20 1019.44 1019.67 1019.88 1020.08 1020.25 1020.38 1020.48 1020.55 1020.58 1020.60 1020.58 1020.55 1020.51 1020.46 1020.40 1020.34 1020.28 1020.23 1020.17 1020.12 1020.07 1020.03 1019.99 1019.95 1019.90 1019.84 1019.77 1019.69 1019.59 1019.48 1019.37 1019.26 1019.17 1019.10 1019.06 1019.07 1019.12 1019.21 1019.32 1019.44 1019.53 1019.59
1019.21 1019.49 1019.76 1020.01 1020.23 1020.42 1020.57 1020.68 1020.75 1020.79 1020.79 1020.77 1020.74 1020.68 1020.62 1020.55 1020.48 1020.40 1020.32 1020.24 1020.16 1020.08 1020.01 1019.95 1019.88 1019.82 1019.75 1019.68 1019.61 1019.52 1019.43 1019.33 1019.24 1019.15 1019.08 1019.04 1019.03 1019.05 1019.10 1019.16 1019.23 1019.28 1019.29
1019.17 1019.47 1019.76 1020.03 1020.27 1020.47 1020.63 1020.75 1020.83 1020.88 1020.89 1020.87 1020.83 1020.78 1020.71 1020.64 1020.55 1020.46 1020.36 1020.27 1020.17 1020.07 1019.98 1019.89 1019.82 1019.74 1019.68 1019.61 1019.55 1019.48 1019.40 1019.32 1019.24 1019.16 1019.09 1019.03 1018.99 1018.96 1018.96 1018.96 1018.95 1018.93 1018.88
1019.08 1019.39 1019.68 1019.96 1020.21 1020.43 1020.60 1020.74 1020.83 1020.89 1020.91 1020.91 1020.88 1020.83 1020.77 1020.69 1020.61 1020.51 1020.41 1020.30 1020.20 1020.09 1019.99 1019.89 1019.81 1019.73 1019.66 1019.60 1019.54 1019.48 1019.41 1019.34 1019.27 1019.18 1019.10 1019.01 1018.93 1018.86 1018.78 1018.70 1018.62 1018.51 1018.37
1018.94 1019.25 1019.56 1019.84 1020.09 1020.32 1020.51 1020.67 1020.78 1020.86 1020.91 1020.92 1020.91 1020.87 1020.82 1020.75 1020.67 1020.58 1020.48 1020.37 1020.26 1020.16 1020.05 1019.96 1019.87 1019.79 1019.72 1019.66 1019.60 1019.54 1019.47 1019.39 1019.31 1019.21 1019.11 1018.99 1018.86 1018.73 1018.58 1018.42 1018.24 1018.04 1017.80
1018.77 1019.09 1019.39 1019.68 1019.94 1020.18 1020.39 1020.57 1020.71 1020.82 1020.89 1020.92 1020.93 1020.91 1020.86 1020.80 1020.73 1020.64 1020.55 1020.46 1020.36 1020.26 1020.16 1020.08 1019.99 1019.91 1019.84 1019.76 1019.69 1019.62 1019.53 1019.44 1019.34 1019.22 1019.08 1018.93 1018.76 1018.56 1018.35 1018.11 1017.85 1017.56 1017.23
1018.59 1018.91 1019.21 1019.50 1019.78 1020.04 1020.27 1020.48 1020.64 1020.77 1020.87 1020.92 1020.94 1020.93 1020.89 1020.84 1020.77 1020.69 1020.61 1020.52 1020.44 1020.36 1020.28 1020.20 1020.11 1020.03 1019.95 1019.86 1019.77 1019.67 1019.56 1019.44 1019.31 1019.16 1018.99 1018.80 1018.59 1018.35 1018.08 1017.78 1017.45 1017.08 1016.68
1018.39 1018.71 1019.03 1019.33 1019.63 1019.91 1020.16 1020.39 1020.58 1020.73 1020.84 1020.91 1020.93 1020.92 1020.88 1020.83 1020.76 1020.69 1020.61 1020.54 1020.47 1020.40 1020.33 1020.26 1020.18 1020.10 1020.00 1019.89 1019.77 1019.64 1019.50 1019.34 1019.17 1018.99 1018.79 1018.57 1018.32 1018.05 1017.75 1017.41 1017.03 1016.60 1016.14
1018.17 1018.52 1018.85 1019.17 1019.49 1019.79 1020.07 1020.32 1020.53 1020.69 1020.80 1020.87 1020.89 1020.87 1020.82 1020.76 1020.69 1020.61 1020.54 1020.47 1020.41 1020.35 1020.29 1020.22 1020.15 1020.05 1019.94 1019.80 1019.65 1019.48 1019.30 1019.10 1018.89 1018.67 1018.44 1018.19 1017.93 1017.63 1017.31 1016.94 1016.53 1016.07 1015.56
1017.95 1018.31 1018.67 1019.01 1019.35 1019.68 1019.98 1020.24 1020.46 1020.63 1020.74 1020.80 1020.81 1020.77 1020.71 1020.63 1020.54 1020.46 1020.38 1020.31 1020.25 1020.19 1020.13 1020.06 1019.98 1019.87 1019.73 1019.56 1019.38 1019.16 1018.94 1018.69 1018.44 1018.19 1017.92 1017.65 1017.36 1017.05 1016.71 1016.33 1015.90 1015.42 1014.88
1017.71 1018.09 1018.47 1018.85 1019.21 1019.56 1019.87 1020.15 1020.37 1020.54 1020.64 1020.69 1020.68 1020.62 1020.54 1020.44 1020.33 1020.23 1020.14 1020.06 1020.00 1019.93 1019.86 1019.78 1019.67 1019.54 1019.37 1019.17 1018.94 1018.68 1018.40 1018.12 1017.82 1017.53 1017.23 1016.93 1016.61 1016.28 1015.93 1015.53 1015.08 1014.59 1014.03
1017.45 1017.86 1018.26 1018.66 1019.04 1019.41 1019.73 1020.02 1020.24 1020.40 1020.49 1020.52 1020.50 1020.43 1020.33 1020.21 1020.09 1019.97 1019.86 1019.76 1019.68 1019.59 1019.49 1019.38 1019.24 1019.07 1018.87 1018.62 1018.35 1018.04 1017.72 1017.38 1017.04 1016.70 1016.36 1016.02 1015.68 1015.32 1014.94 1014.52 1014.06 1013.54 1012.97
1017.16 1017.59 1018.01 1018.43 1018.83 1019.20 1019.54 1019.82 1020.04 1020.20 1020.28 1020.31 1020.27 1020.20 1020.09 1019.96 1019.82 1019.68 1019.56 1019.43 1019.31 1019.19 1019.06 1018.90 1018.72 1018.50 1018.25 1017.95 1017.62 1017.27 1016.89 1016.50 1016.11 1015.73 1015.34 1014.96 1014.57 1014.17 1013.75 1013.30 1012.81 1012.27 1011.68
1016.86 1017.29 1017.73 1018.16 1018.56 1018.94 1019.27 1019.55 1019.77 1019.92 1020.01 1020.04 1020.01 1019.93 1019.83 1019.69 1019.55 1019.40 1019.25 1019.09 1018.94 1018.77 1018.58 1018.37 1018.12 1017.84 1017.53 1017.18 1016.80 1016.39 1015.96 1015.52 1015.08 1014.64 1014.20 1013.77 1013.33 1012.88 1012.41 1011.92 1011.39 1010.81 1010.19
1016.53 1016.98 1017.41 1017.84 1018.24 1018.61 1018.94 1019.21 1019.43 1019.58 1019.68 1019.72 1019.70 1019.64 1019.55 1019.43 1019.28 1019.12 1018.94 1018.75 1018.55 1018.32 1018.06 1017.78 1017.47 1017.12 1016.74 1016.32 1015.89 1015.43 1014.95 1014.47 1013.98 1013.48 1012.99 1012.50 1012.00 1011.49 1010.96 1010.40 1009.82 1009.21 1008.55
1016.22 1016.65 1017.08 1017.50 1017.88 1018.24 1018.55 1018.81 1019.02 1019.18 1019.29 1019.35 1019.36 1019.32 1019.25 1019.14 1019.00 1018.83 1018.63 1018.39 1018.13 1017.83 1017.51 1017.14 1016.75 1016.33 1015.88 1015.40 1014.91 1014.40 1013.88 1013.35 1012.82 1012.28 1011.73 1011.18 1010.61 1010.03 1009.44 1008.82 1008.17 1007.51 1006.81
Thickness
5587 5589 5590 5591 5592 5593 5594 5593 5593 5592 5590 5587 5584 5580 5574 5569 5562 5555 5548 5542 5537 5534 5531 5530 5527 5525 5525 5524 5524 5525 5525 5524 5518 5508 5505 5502 5499 5496 5493 5489 5487 5485 5482
5575 5577 5577 5577 5578 5579 5579 5579 5579 5577 5573 5570 5566 5561 5555 5547 5540 5534 5527 5522 5517 5513 5510 5508 5506 5505 5505 5506 5507 5508 5508 5508 5506 5498 5493 5488 5484 5482 5479 5476 5473 5471 5468
5564 5564 5564 5564 5564 5564 5564 5564 5563 5560 5556 5552 5547 5541 5534 5526 5519 5512 5507 5502 5497 5494 5492 5490 5488 5488 5487 5489 5490 5491 5491 5492 5493 5490 5483 5478 5472 5469 5466 5462 5460 5457 5454
5552 5552 5551 5551 5551 5551 5550 5549 5547 5544 5540 5534 5528 5522 5515 5508 5501 5495 5489 5484 5480 5477 5475 5473 5472 5472 5473 5474 5475 5475 5476 5477 5476 5475 5471 5465 5461 5457 5453 5449 5447 5443 5439
5541 5540 5539 5539 5539 5538 5537 5535 5532 5529 5524 5518 5512 5506 5500 5493 5487 5480 5474 5469 5465 5461 5458 5458 5457 5458 5459 5461 5461 5461 5462 5462 5461 5459 5457 5453 5450 5446 5442 5438 5433 5428 5425
5530 5529 5529 5528 5527 5526 5525 5522 5519 5514 5510 5504 5499 5493 5487 5481 5475 5469 5463 5457 5453 5449 5446 5445 5444 5445 5448 5449 5449 5450 5450 5449 5448 5446 5444 5441 5437 5434 5430 5425 5418 5412 5407
5521 5520 5519 5518 5516 5514 5512 5510 5506 5501 5497 5492 5486 5481 5475 5470 5465 5459 5453 5447 5442 5439 5437 5435 5435 5435 5435 5436 5438 5438 5438 5438 5437 5434 5431 5427 5424 5420 5415 5409 5403 5397 5392
5512 5511 5509 5507 5505 5503 5500 5497 5493 5489 5484 5479 5474 5469 5465 5460 5455 5450 5445 5439 5435 5432 5429 5428 5427 5426 5427 5427 5428 5428 5427 5427 5425 5423 5419 5415 5411 5407 5402 5396 5389 5383 5378
5503 5501 5499 5497 5495 5492 5489 5486 5482 5478 5473 5468 5463 5458 5454 5450 5447 5443 5439 5434 5430 5427 5425 5423 5422 5421 5422 5422 5421 5419 5418 5417 5416 5413 5409 5404 5400 5395 5390 5383 5374 5367 5360
5495 5493 5491 5489 5486 5483 5479 5476 5472 5468 5463 5459 5454 5450 5446 5443 5441 5438 5434 5430 5426 5423 5421 5419 5418 5417 5416 5416 5413 5411 5409 5407 5404 5400 5396 5392 5387 5382 5377 5370 5360 5349 5341
5489 5487 5484 5481 5478 5475 5472 5468 5464 5460 5456 5452 5448 5444 5441 5438 5435 5433 5430 5425 5422 5420 5417 5414 5413 5412 5410 5408 5406 5402 5400 5397 5392 5387 5383 5378 5373 5368 5362 5355 5347 5337 5328
5483 5481 5478 5475 5473 5469 5466 5462 5459 5455 5450 5446 5443 5439 5436 5433 5430 5428 5425 5422 5419 5415 5412 5409 5407 5405 5403 5400 5396 5394 5390 5386 5380 5374 5369 5364 5357 5351 5345 5339 5332 5325 5319
5478 5475 5473 5471 5468 5465 5461 5457 5454 5450 5446 5442 5438 5433 5430 5428 5425 5423 5420 5417 5414 5409 5406 5404 5401 5398 5395 5390 5387 5384 5379 5372 5367 5361 5355 5348 5342 5336 5330 5324 5319 5315 5310
5475 5471 5468 5465 5462 5459 5455 5452 5448 5443 5440 5437 5433 5429 5425 5422 5418 5416 5412 5409 5407 5403 5399 5396 5394 5391 5387 5383 5379 5373 5368 5361 5355 5348 5341 5334 5329 5322 5317 5312 5308 5306 5303
5470 5466 5463 5460 5456 5452 5448 5444 5440 5436 5433 5429 5425 5422 5418 5414 5413 5411 5406 5403 5399 5396 5393 5388 5385 5381 5377 5372 5367 5362 5356 5350 5342 5335 5328 5321 5316 5310 5306 5302 5299 5296 5295
5465 5461 5457 5453 5450 5446 5441 5436 5434 5431 5428 5425 5421 5417 5414 5411 5408 5404 5401 5397 5393 5390 5385 5379 5375 5370 5366 5361 5355 5349 5343 5336 5329 5322 5315 5308 5303 5299 5296 5293 5290 5288 5287
5461 5456 5452 5449 5445 5441 5437 5432 5427 5424 5421 5418 5415 5411 5408 5404 5401 5397 5393 5390 5386 5382 5375 5369 5364 5359 5354 5349 5343 5336 5330 5324 5317 5309 5303 5297 5293 5290 5286 5284 5281 5280 5280
5457 5453 5448 5443 5439 5435 5431 5427 5423 5419 5414 5411 5408 5405 5401 5398 5394 5390 5386 5381 5376 5372 5367 5361 5354 5350 5344 5338 5332 5325 5319 5312 5306 5299 5293 5288 5284 5280 5277 5275 5272 5271 5271
5450 5445 5442 5437 5433 5429 5425 5421 5417 5413 5409 5405 5402 5399 5396 5391 5388 5384 5380 5373 5367 5363 5358 5352 5346 5341 5335 5328 5322 5315 5308 5302 5296 5289 5284 5279 5275 5271 5269 5267 5265 5264 5264
5445 5442 5437 5431 5427 5423 5418 5414 5410 5406 5402 5398 5395 5391 5388 5383 5379 5375 5371 5366 5360 5355 5350 5344 5338 5332 5326 5319 5312 5305 5298 5292 5286 5281 5276 5272 5268 5265 5262 5260 5259 5257 5257
5438 5434 5432 5426 5421 5417 5412 5408 5404 5400 5396 5392 5388 5386 5383 5377 5372 5368 5363 5359 5354 5348 5342 5336 5330 5324 5317 5310 5303 5296 5290 5284 5278 5273 5269 5265 5261 5258 5256 5254 5252 5251 5251
5433 5428 5423 5419 5415 5411 5406 5402 5398 5394 5390 5386 5382 5379 5376 5371 5365 5361 5357 5353 5348 5342 5336 5330 5323 5317 5310 5303 5295 5288 5281 5276 5271 5266 5262 5258 5254 5251 5249 5248 5247 5246 5245
5427 5422 5417 5413 5409 5406 5401 5396 5392 5387 5383 5380 5376 5373 5369 5364 5360 5356 5351 5347 5341 5336 5330 5323 5317 5310 5304 5296 5289 5281 5275 5270 5265 5260 5255 5252 5248 5245 5243 5242 5241 5241 5242
5421 5416 5411 5407 5403 5398 5394 5390 5386 5382 5378 5374 5371 5367 5363 5358 5354 5350 5345 5340 5335 5329 5324 5317 5310 5304 5297 5290 5283 5276 5270 5265 5260 5255 5251 5247 5245 5242 5240 5239 5240 5240 5241
5414 5410 5406 5401 5397 5393 5388 5384 5380 5376 5373 5369 5365 5361 5357 5352 5348 5343 5339 5334 5328 5323 5317 5311 5305 5298 5292 5285 5279 5273 5268 5263 5258 5255 5252 5249 5247 5244 5243 5242 5243 5245 5245
5407 5404 5400 5395 5391 5387 5382 5378 5375 5371 5367 5363 5359 5354 5350 5346 5342 5337 5333 5328 5322 5317 5311 5305 5300 5293 5287 5281 5276 5271 5267 5263 5259 5256 5253 5252 5251 5250 5248 5249 5250 5250 5251